Time,TemperatureF,DewpointF,PressureIn,WindDirection,WindDirectionDegrees,WindSpeedMPH,WindSpeedGustMPH,Humidity,HourlyPrecipIn,Conditions,Clouds,dailyrainin,SoftwareType,DateUTC
2013-10-20 00:02:00,42.0,30.0,-100.00,SE,138,4.0,6.0,61,0.00,,,0.00,,2013-10-20 06:02:00,
2013-10-20 00:22:00,42.0,30.0,-100.00,SE,130,6.0,8.0,61,0.00,,,0.00,,2013-10-20 06:22:00,
2013-10-20 00:32:00,42.0,30.0,-100.00,SE,130,6.0,8.0,61,0.00,,,0.00,,2013-10-20 06:32:00,
2013-10-20 00:52:00,42.0,30.0,-100.00,SE,143,8.0,9.0,62,0.00,,,0.00,,2013-10-20 06:52:00,
2013-10-20 01:02:00,42.0,30.0,-100.00,SE,143,8.0,9.0,62,0.00,,,0.00,,2013-10-20 07:02:00,
2013-10-20 01:22:00,41.0,30.0,-100.00,ESE,121,3.0,4.0,65,0.00,,,0.00,,2013-10-20 07:22:00,
2013-10-20 01:32:00,41.0,30.0,-100.00,ESE,121,3.0,4.0,65,0.00,,,0.00,,2013-10-20 07:32:00,
2013-10-20 01:52:00,41.0,30.0,-100.00,ENE,64,1.0,2.0,63,0.00,,,0.00,,2013-10-20 07:52:00,
2013-10-20 02:02:00,41.0,30.0,-100.00,ENE,64,1.0,2.0,63,0.00,,,0.00,,2013-10-20 08:02:00,
2013-10-20 02:22:00,41.0,30.0,-100.00,North,359,2.0,3.0,64,0.00,,,0.00,,2013-10-20 08:22:00,
2013-10-20 02:32:00,41.0,30.0,-100.00,North,359,2.0,3.0,64,0.00,,,0.00,,2013-10-20 08:32:00,
2013-10-20 02:52:00,42.0,30.0,-100.00,South,181,4.0,6.0,60,0.00,,,0.00,,2013-10-20 08:52:00,
2013-10-20 03:02:00,42.0,30.0,-100.00,South,181,4.0,6.0,60,0.00,,,0.00,,2013-10-20 09:02:00,
2013-10-20 03:21:00,41.0,30.0,-100.00,SE,141,2.0,3.0,65,0.00,,,0.00,,2013-10-20 09:21:00,
2013-10-20 03:33:00,41.0,30.0,-100.00,SE,141,2.0,3.0,65,0.00,,,0.00,,2013-10-20 09:33:00,
2013-10-20 03:53:00,40.0,29.0,-100.00,South,175,5.0,6.0,64,0.00,,,0.00,,2013-10-20 09:53:00,
2013-10-20 04:03:00,40.0,29.0,-100.00,South,175,5.0,6.0,64,0.00,,,0.00,,2013-10-20 10:03:00,
2013-10-20 04:23:00,41.0,30.0,-100.00,WNW,285,0.0,1.0,66,0.00,,,0.00,,2013-10-20 10:23:00,
2013-10-20 04:33:00,41.0,30.0,-100.00,WNW,285,0.0,1.0,66,0.00,,,0.00,,2013-10-20 10:33:00,
2013-10-20 04:53:00,38.0,31.0,-100.00,West,265,3.0,5.0,76,0.00,,,0.00,,2013-10-20 10:53:00,
2013-10-20 05:02:00,38.0,31.0,-100.00,West,265,3.0,5.0,76,0.00,,,0.00,,2013-10-20 11:02:00,
2013-10-20 05:22:00,38.0,31.0,-100.00,NE,54,0.0,2.0,79,0.00,,,0.00,,2013-10-20 11:22:00,
2013-10-20 05:33:00,38.0,31.0,-100.00,NE,54,0.0,2.0,79,0.00,,,0.00,,2013-10-20 11:33:00,
2013-10-20 05:52:00,35.0,31.0,-100.00,East,86,1.0,2.0,84,0.00,,,0.00,,2013-10-20 11:52:00,
2013-10-20 06:02:00,35.0,31.0,-100.00,East,86,1.0,2.0,84,0.00,,,0.00,,2013-10-20 12:02:00,
2013-10-20 06:21:00,35.0,30.0,-100.00,SW,234,2.0,3.0,83,0.00,,,0.00,,2013-10-20 12:21:00,
2013-10-20 06:32:00,35.0,30.0,-100.00,SW,234,2.0,3.0,83,0.00,,,0.00,,2013-10-20 12:32:00,
2013-10-20 07:21:00,32.0,29.0,-100.00,NW,320,0.0,0.0,89,0.00,,,0.00,,2013-10-20 13:21:00,
2013-10-20 07:32:00,32.0,29.0,-100.00,NW,320,0.0,0.0,89,0.00,,,0.00,,2013-10-20 13:32:00,
2013-10-20 07:52:00,32.0,29.0,-100.00,WSW,241,0.0,0.0,91,0.00,,,0.00,,2013-10-20 13:52:00,
2013-10-20 08:02:00,32.0,29.0,-100.00,WSW,241,0.0,0.0,91,0.00,,,0.00,,2013-10-20 14:02:00,
2013-10-20 08:22:00,32.0,29.0,-100.00,NNE,13,0.0,0.0,89,0.00,,,0.00,,2013-10-20 14:22:00,
2013-10-20 08:32:00,32.0,29.0,-100.00,NNE,13,0.0,0.0,89,0.00,,,0.00,,2013-10-20 14:32:00,
2013-10-20 08:52:00,31.0,28.0,-100.00,ENE,71,2.0,3.0,88,0.00,,,0.00,,2013-10-20 14:52:00,
2013-10-20 09:02:00,31.0,28.0,-100.00,ENE,71,2.0,3.0,88,0.00,,,0.00,,2013-10-20 15:02:00,
2013-10-20 09:21:00,34.0,30.0,-100.00,NNE,28,1.0,2.0,84,0.00,,,0.00,,2013-10-20 15:21:00,
2013-10-20 09:34:00,34.0,30.0,-100.00,NNE,28,1.0,2.0,84,0.00,,,0.00,,2013-10-20 15:34:00,
2013-10-20 09:54:00,37.0,31.0,-100.00,WSW,254,2.0,3.0,79,0.00,,,0.00,,2013-10-20 15:54:00,
2013-10-20 10:04:00,37.0,31.0,-100.00,WSW,254,2.0,3.0,79,0.00,,,0.00,,2013-10-20 16:04:00,
2013-10-20 10:24:00,43.0,31.0,-100.00,WSW,243,1.0,2.0,61,0.00,,,0.00,,2013-10-20 16:24:00,
2013-10-20 10:33:00,43.0,31.0,-100.00,WSW,243,1.0,2.0,61,0.00,,,0.00,,2013-10-20 16:33:00,
2013-10-20 10:54:00,44.0,30.0,-100.00,West,277,0.0,1.0,56,0.00,,,0.00,,2013-10-20 16:54:00,
2013-10-20 11:02:00,44.0,30.0,-100.00,West,277,0.0,1.0,56,0.00,,,0.00,,2013-10-20 17:02:00,
2013-10-20 11:23:00,47.0,29.0,-100.00,ENE,73,1.0,2.0,49,0.00,,,0.00,,2013-10-20 17:23:00,
2013-10-20 11:34:00,47.0,29.0,-100.00,ENE,73,1.0,2.0,49,0.00,,,0.00,,2013-10-20 17:34:00,
2013-10-20 11:52:00,49.0,29.0,-100.00,NNW,347,2.0,4.0,45,0.00,,,0.00,,2013-10-20 17:52:00,
2013-10-20 12:02:00,49.0,29.0,-100.00,NNW,347,2.0,4.0,45,0.00,,,0.00,,2013-10-20 18:02:00,
2013-10-20 12:21:00,51.0,29.0,-100.00,NE,56,2.0,4.0,41,0.00,,,0.00,,2013-10-20 18:21:00,
2013-10-20 12:32:00,51.0,29.0,-100.00,NE,56,2.0,4.0,41,0.00,,,0.00,,2013-10-20 18:32:00,
2013-10-20 12:52:00,55.0,27.0,-100.00,NNE,17,8.0,10.0,34,0.00,,,0.00,,2013-10-20 18:52:00,
2013-10-20 13:02:00,55.0,27.0,-100.00,NNE,17,8.0,10.0,34,0.00,,,0.00,,2013-10-20 19:02:00,
2013-10-20 13:21:00,55.0,27.0,-100.00,North,6,7.0,10.0,34,0.00,,,0.00,,2013-10-20 19:21:00,
2013-10-20 13:31:00,55.0,27.0,-100.00,North,6,7.0,10.0,34,0.00,,,0.00,,2013-10-20 19:31:00,
2013-10-20 13:52:00,56.0,28.0,-100.00,North,360,9.0,12.0,34,0.00,,,0.00,,2013-10-20 19:52:00,
2013-10-20 14:02:00,56.0,28.0,-100.00,North,360,9.0,12.0,34,0.00,,,0.00,,2013-10-20 20:02:00,
2013-10-20 14:22:00,57.0,29.0,-100.00,NNW,337,13.0,15.0,33,0.00,,,0.00,,2013-10-20 20:22:00,
2013-10-20 14:32:00,57.0,29.0,-100.00,NNW,337,13.0,15.0,33,0.00,,,0.00,,2013-10-20 20:32:00,
2013-10-20 14:52:00,58.0,29.0,-100.00,NW,313,10.0,12.0,33,0.00,,,0.00,,2013-10-20 20:52:00,
2013-10-20 15:02:00,58.0,29.0,-100.00,NW,313,10.0,12.0,33,0.00,,,0.00,,2013-10-20 21:02:00,
2013-10-20 15:21:00,58.0,28.0,-100.00,NW,326,11.0,14.0,31,0.00,,,0.00,,2013-10-20 21:21:00,
2013-10-20 15:34:00,58.0,28.0,-100.00,NW,326,11.0,14.0,31,0.00,,,0.00,,2013-10-20 21:34:00,
2013-10-20 15:54:00,59.0,28.0,-100.00,NW,322,10.0,16.0,30,0.00,,,0.00,,2013-10-20 21:54:00,
2013-10-20 16:04:00,59.0,28.0,-100.00,NW,322,10.0,16.0,30,0.00,,,0.00,,2013-10-20 22:04:00,
2013-10-20 16:23:00,59.0,27.0,-100.00,NW,306,10.0,13.0,29,0.00,,,0.00,,2013-10-20 22:23:00,
2013-10-20 16:33:00,59.0,27.0,-100.00,NW,306,10.0,13.0,29,0.00,,,0.00,,2013-10-20 22:33:00,
2013-10-20 16:53:00,58.0,27.0,-100.00,NW,323,8.0,10.0,31,0.00,,,0.00,,2013-10-20 22:53:00,
2013-10-20 17:03:00,58.0,27.0,-100.00,NW,323,8.0,10.0,31,0.00,,,0.00,,2013-10-20 23:03:00,
2013-10-20 17:22:00,57.0,27.0,-100.00,NW,319,11.0,14.0,31,0.00,,,0.00,,2013-10-20 23:22:00,
2013-10-20 17:34:00,57.0,27.0,-100.00,NW,319,11.0,14.0,31,0.00,,,0.00,,2013-10-20 23:34:00,
2013-10-20 17:52:00,57.0,27.0,-100.00,NW,308,9.0,12.0,31,0.00,,,0.00,,2013-10-20 23:52:00,
2013-10-20 18:02:00,57.0,27.0,-100.00,NW,308,9.0,12.0,31,0.00,,,0.00,,2013-10-21 00:02:00,
2013-10-20 18:21:00,57.0,27.0,-100.00,NW,304,6.0,8.0,32,0.00,,,0.00,,2013-10-21 00:21:00,
2013-10-20 18:32:00,57.0,27.0,-100.00,NW,304,6.0,8.0,32,0.00,,,0.00,,2013-10-21 00:32:00,
2013-10-20 18:52:00,52.0,27.0,-100.00,NW,312,4.0,5.0,37,0.00,,,0.00,,2013-10-21 00:52:00,
2013-10-20 19:02:00,52.0,27.0,-100.00,NW,312,4.0,5.0,37,0.00,,,0.00,,2013-10-21 01:02:00,
2013-10-20 19:21:00,51.0,28.0,-100.00,North,4,4.0,6.0,41,0.00,,,0.00,,2013-10-21 01:21:00,
2013-10-20 19:32:00,51.0,28.0,-100.00,North,4,4.0,6.0,41,0.00,,,0.00,,2013-10-21 01:32:00,
2013-10-20 19:52:00,46.0,28.0,-100.00,NNW,340,3.0,4.0,49,0.00,,,0.00,,2013-10-21 01:52:00,
2013-10-20 20:02:00,46.0,28.0,-100.00,NNW,340,3.0,4.0,49,0.00,,,0.00,,2013-10-21 02:02:00,
2013-10-20 20:21:00,47.0,27.0,-100.00,North,1,4.0,5.0,45,0.00,,,0.00,,2013-10-21 02:21:00,
2013-10-20 20:32:00,47.0,27.0,-100.00,North,1,4.0,5.0,45,0.00,,,0.00,,2013-10-21 02:32:00,
2013-10-20 20:52:00,44.0,27.0,-100.00,NW,326,4.0,4.0,51,0.00,,,0.00,,2013-10-21 02:52:00,
2013-10-20 21:03:00,44.0,27.0,-100.00,NW,326,4.0,4.0,51,0.00,,,0.00,,2013-10-21 03:03:00,
2013-10-20 21:22:00,43.0,27.0,-100.00,NNE,21,4.0,5.0,53,0.00,,,0.00,,2013-10-21 03:22:00,
2013-10-20 21:34:00,43.0,27.0,-100.00,NNE,21,4.0,5.0,53,0.00,,,0.00,,2013-10-21 03:34:00,
2013-10-20 21:54:00,40.0,28.0,-100.00,NNE,31,0.0,0.0,61,0.00,,,0.00,,2013-10-21 03:54:00,
2013-10-20 22:04:00,40.0,28.0,-100.00,NNE,31,0.0,0.0,61,0.00,,,0.00,,2013-10-21 04:04:00,
2013-10-20 22:24:00,38.0,28.0,-100.00,NW,312,0.0,0.0,65,0.00,,,0.00,,2013-10-21 04:24:00,
2013-10-20 22:34:00,38.0,28.0,-100.00,NW,312,0.0,0.0,65,0.00,,,0.00,,2013-10-21 04:34:00,
2013-10-20 22:53:00,36.0,27.0,-100.00,NW,308,1.0,3.0,71,0.00,,,0.00,,2013-10-21 04:53:00,
2013-10-20 23:04:00,36.0,27.0,-100.00,NW,308,1.0,3.0,71,0.00,,,0.00,,2013-10-21 05:04:00,
2013-10-20 23:23:00,34.0,28.0,-100.00,SSW,200,1.0,2.0,77,0.00,,,0.00,,2013-10-21 05:23:00,
2013-10-20 23:34:00,34.0,28.0,-100.00,SSW,200,1.0,2.0,77,0.00,,,0.00,,2013-10-21 05:34:00,
2013-10-20 23:52:00,33.0,27.0,-100.00,South,181,1.0,2.0,82,0.00,,,0.00,,2013-10-21 05:52:00,